EW8974 Weather Reports


Display with metric or nautical units.
time (UTC)temp
F
wind
direction
speed
MPH
gust
MPH
rain 1hr
in
rain 24hr
in
rain mn
in
humidity
%
barometer
mb
20190326061657 56 88 0.0 3.0 0.00 0.00 0.00 71 1025.4
20190326060047 57 105 0.0 4.0 0.00 0.00 0.00 69 1025.3
20190326054549 58 132 0.0 7.0 0.00 0.53 0.00 69 1025.1
20190326053050 58 237 0.0 5.0 0.00 0.53 0.00 68 1025.1
20190326051547 58 141 1.0 6.0 0.00 0.53 0.00 68 1025.0
20190326050104 59 97 0.0 3.0 0.00 0.53 0.00 68 1024.8
20190326044528 59 54 0.0 1.0 0.00 0.53 0.53 68 1024.7
20190326043043 59 130 0.0 2.0 0.00 0.53 0.53 68 1024.4
20190326041522 60 100 0.0 2.0 0.00 0.53 0.53 67 1024.1
20190326040031 60 49 0.0 3.0 0.00 0.53 0.53 66 1024.0
20190326034533 59 342 0.0 2.0 0.00 0.60 0.53 67 1023.8
20190326033014 59 18 0.0 0.0 0.00 0.60 0.53 67 1023.7
20190326031529 59 18 0.0 0.0 0.00 0.60 0.53 67 1023.7
20190326030014 59 18 0.0 0.0 0.00 0.60 0.53 68 1023.5
20190326024530 58 18 0.0 0.0 0.00 0.60 0.53 69 1023.3
20190326023007 59 18 0.0 0.0 0.00 0.60 0.53 66 1023.1
20190326021516 60 18 0.0 0.0 0.00 0.60 0.53 64 1023.0
20190326020008 61 18 0.0 0.0 0.00 0.60 0.53 62 1022.7
20190326014508 62 17 0.0 0.0 0.00 0.60 0.53 61 1022.4
20190326013006 63 17 0.0 0.0 0.00 0.60 0.53 59 1022.2
20190326011505 65 26 0.0 5.0 0.00 0.60 0.53 56 1022.2
20190326010014 65 290 0.0 3.0 0.00 0.60 0.53 54 1022.0
20190326004514 66 5 0.0 3.0 0.00 0.60 0.53 52 1021.9
20190326003010 68 62 0.0 3.0 0.00 0.60 0.53 51 1021.8
20190326001509 70 38 0.0 5.0 0.00 0.60 0.53 47 1021.8
20190326000004 71 245 0.0 4.0 0.00 0.60 0.53 46 1021.7
20190325234654 72 143 0.0 5.0 0.00 0.60 0.53 46 1021.5
20190325233226 73 89 0.0 6.0 0.00 0.60 0.53 44 1021.5
20190325231635 73 340 0.0 3.0 0.00 0.60 0.53 44 1021.4
20190325230141 73 107 0.0 4.0 0.00 0.60 0.53 44 1021.3
20190325224731 73 63 0.0 6.0 0.00 0.60 0.53 44 1021.3
20190325223146 74 289 1.0 4.0 0.00 0.60 0.53 46 1021.3
20190325221647 74 5 0.0 7.0 0.00 0.60 0.53 45 1021.3
20190325220133 74 14 1.0 5.0 0.00 0.60 0.53 45 1021.4
20190325214750 74 309 0.0 5.0 0.00 0.61 0.53 46 1021.3
20190325213125 74 222 1.0 7.0 0.00 0.61 0.53 46 1021.5
20190325211754 74 213 0.0 7.0 0.00 0.61 0.53 47 1021.6
20190325210217 74 72 1.0 7.0 0.00 0.61 0.53 45 1021.6
20190325204637 74 108 0.0 3.0 0.00 0.61 0.53 49 1021.7
20190325203242 73 56 3.0 8.0 0.00 0.61 0.53 46 1021.9
20190325201711 73 321 1.0 6.0 0.00 0.61 0.53 46 1021.9
20190325200215 73 150 1.0 7.0 0.00 0.61 0.53 45 1022.0
20190325194630 73 288 0.0 6.0 0.00 0.61 0.53 48 1022.1
20190325193119 73 55 0.0 4.0 0.00 0.61 0.53 48 1022.1
20190325191621 73 119 1.0 11.0 0.00 0.61 0.53 49 1022.2
20190325190136 72 152 0.0 4.0 0.00 0.61 0.53 51 1022.3
20190325184636 71 253 1.0 5.0 0.00 0.61 0.53 51 1022.5
20190325183137 71 98 2.0 7.0 0.00 0.61 0.53 49 1022.6
20190325181603 71 103 0.0 5.0 0.00 0.61 0.53 53 1022.8
20190325180047 71 107 0.0 6.0 0.00 0.61 0.53 51 1022.9
20190325174603 70 325 1.0 6.0 0.00 0.61 0.53 52 1022.9
20190325173121 70 149 1.0 7.0 0.00 0.61 0.53 49 1022.9
20190325171627 70 113 1.0 5.0 0.00 0.61 0.53 49 1023.0
20190325170052 69 23 1.0 6.0 0.00 0.61 0.53 53 1023.0
20190325164546 68 123 1.0 5.0 0.00 0.61 0.53 54 1022.9
20190325163039 67 103 1.0 8.0 0.00 0.61 0.53 56 1022.9
20190325161529 67 321 1.0 4.0 0.00 0.61 0.53 58 1022.8
20190325160049 65 236 1.0 6.0 0.00 0.61 0.53 57 1022.6
20190325154531 64 10 1.0 5.0 0.00 0.61 0.53 59 1022.4
20190325153045 63 109 0.0 5.0 0.00 0.61 0.53 64 1022.1
20190325151521 62 354 1.0 8.0 0.00 0.61 0.53 63 1022.0
20190325150024 61 187 2.0 6.0 0.00 0.61 0.53 65 1021.8
20190325144514 60 318 0.0 5.0 0.00 0.61 0.53 69 1021.4
20190325143024 59 207 1.0 6.0 0.00 0.61 0.53 70 1021.1
20190325141503 57 349 1.0 7.0 0.00 0.61 0.53 73 1020.9
20190325140206 56 77 0.0 3.0 0.00 0.61 0.53 76 1020.6
20190325134854 56 310 1.0 6.0 0.00 0.61 0.53 76 1020.6
20190325133202 55 9 0.0 3.0 0.00 0.61 0.53 80 1020.3
20190325131647 53 36 0.0 5.0 0.00 0.61 0.53 83 1020.0
20190325130211 52 11 0.0 0.0 0.00 0.61 0.53 85 1019.6
20190325124658 52 332 0.0 0.0 0.00 0.61 0.53 85 1019.5
20190325123306 52 359 0.0 0.0 0.00 0.61 0.53 85 1019.5
20190325121627 53 38 0.0 1.0 0.00 0.61 0.53 84 1019.5
20190325120122 53 4 0.0 2.0 0.00 0.61 0.53 84 1019.4
20190325114618 54 72 0.0 2.0 0.00 0.61 0.53 82 1019.1
20190325113146 54 103 0.0 3.0 0.00 0.61 0.53 82 1019.0
20190325111620 55 204 0.0 3.0 0.00 0.61 0.53 81 1018.9
20190325110110 56 336 0.0 4.0 0.00 0.61 0.53 81 1018.5
20190325104545 56 11 0.0 6.0 0.00 0.61 0.53 81 1018.3
20190325103054 56 91 0.0 5.0 0.00 0.61 0.53 81 1018.1
20190325101534 57 330 0.0 4.0 0.00 0.61 0.53 81 1017.9
20190325100038 57 335 0.0 3.0 0.00 0.61 0.53 82 1017.6
20190325094525 57 46 0.0 2.0 0.00 0.61 0.53 83 1017.3
20190325093057 56 112 0.0 0.0 0.00 0.61 0.53 86 1017.2
20190325091527 57 110 0.0 1.0 0.00 0.61 0.53 86 1016.8
20190325090025 58 112 0.0 2.0 0.00 0.61 0.53 84 1016.5
20190325084601 58 335 0.0 2.0 0.00 0.61 0.53 84 1016.3
20190325083018 58 110 0.0 6.0 0.00 0.61 0.53 86 1016.2
20190325081535 59 4 0.0 2.0 0.00 0.61 0.53 86 1016.2
20190325080026 59 18 0.0 4.0 0.00 0.61 0.53 86 1016.0
20190325074537 60 329 1.0 5.0 0.00 0.61 0.53 86 1016.2
20190325073033 60 86 0.0 4.0 0.00 0.61 0.53 87 1016.3
20190325071502 61 4 0.0 7.0 0.00 0.61 0.53 87 1016.1
20190325070212 61 129 1.0 11.0 0.00 0.61 0.53 88 1016.1
20190325064623 62 296 1.0 5.0 0.00 0.61 0.53 92 1016.3
20190325063146 63 96 0.0 3.0 0.51 0.61 0.53 94 1016.5